FW2249 Weather Reports


Display with metric or nautical units.
time (UTC)temp
F
wind
direction
speed
MPH
gust
MPH
rain 1hr
in
rain 24hr
in
rain mn
in
humidity
%
barometer
mb
20260503172122 74 279 2.0 8.0 0.00 0.00 0.00 54 1013.4
20260503171122 73 289 0.0 6.0 0.00 0.00 0.00 56 1013.5
20260503170122 72 277 1.0 8.0 0.00 0.00 0.00 56 1013.6
20260503160122 76 23 0.0 2.0 0.00 0.00 0.00 52 1014.0
20260503150122 63 338 0.0 0.0 0.00 0.00 0.00 71 1014.1
20260503140122 55 225 0.0 0.0 0.00 0.00 0.00 90 1014.0
20260503131122 50 113 0.0 0.0 0.00 0.00 0.00 96 1013.7
20260503130122 50 270 0.0 0.0 0.00 0.00 0.00 96 1013.7
20260503120123 50 180 0.0 0.0 0.00 0.00 0.00 96 1013.7
20260503110122 51 203 0.0 0.0 0.00 0.00 0.00 96 1013.8
20260503100122 53 135 0.0 0.0 0.00 0.00 0.00 96 1013.9
20260503090122 53 338 0.0 0.0 0.00 0.00 0.00 96 1013.6
20260503081123 55 338 0.0 0.0 0.00 0.00 0.00 95 1013.5
20260503080122 55 293 0.0 0.0 0.00 0.00 0.00 93 1013.4
20260503072122 57 315 0.0 0.0 0.00 0.00 0.00 92 1013.4
20260503071122 57 338 0.0 0.0 0.00 0.00 0.00 92 1013.2
20260503070122 56 270 0.0 0.0 0.00 0.00 0.00 92 1013.1
20260503060122 58 113 0.0 0.0 0.00 0.00 0.00 87 1012.9
20260503054122 59 158 0.0 0.0 0.00 0.00 0.00 87 1012.8
20260503053122 59 158 0.0 0.0 0.00 0.00 0.00 85 1012.9
20260503052122 58 113 0.0 0.0 0.00 0.00 0.00 86 1012.7
20260503051122 58 68 0.0 0.0 0.00 0.00 0.00 85 1012.8
20260503050123 58 68 0.0 0.0 0.00 0.00 0.00 84 1012.7
20260503045122 59 90 0.0 0.0 0.00 0.00 0.00 83 1012.7
20260503044122 60 315 0.0 0.0 0.00 0.00 0.00 80 1012.7
20260503043122 61 293 0.0 0.0 0.00 0.00 0.00 78 1012.6
20260503042123 62 270 0.0 0.0 0.00 0.00 0.00 76 1012.5
20260503041123 62 23 0.0 0.0 0.00 0.00 0.00 74 1012.4
20260503040122 63 315 0.0 0.0 0.00 0.00 0.00 73 1012.2
20260503035122 64 248 0.0 0.0 0.00 0.00 0.00 72 1012.2
20260503034122 64 315 0.0 0.0 0.00 0.00 0.00 70 1012.2
20260503033123 65 225 0.0 0.0 0.00 0.00 0.00 68 1012.0
20260503032122 67 293 0.0 0.0 0.00 0.00 0.00 66 1012.2
20260503031122 69 293 0.0 0.0 0.00 0.00 0.00 63 1012.0
20260503030123 70 270 0.0 0.0 0.00 0.00 0.00 60 1012.0
20260503025122 70 315 0.0 0.0 0.00 0.00 0.00 60 1012.0
20260503024143 71 286 1.0 7.0 0.00 0.00 0.00 58 1011.9
20260503023123 72 293 0.0 0.0 0.00 0.00 0.00 57 1011.9
20260503022123 73 270 0.0 0.0 0.00 0.00 0.00 56 1012.1
20260503021122 72 360 0.0 0.0 0.00 0.00 0.00 56 1012.0
20260503020122 72 270 0.0 0.0 0.00 0.00 0.00 56 1012.0
20260503015123 75 293 0.0 0.0 0.00 0.00 0.00 52 1012.0
20260503014122 75 337 0.0 4.0 0.00 0.00 0.00 53 1012.2
20260503013123 75 360 0.0 0.0 0.00 0.00 0.00 52 1012.2
20260503012122 75 325 0.0 3.0 0.00 0.00 0.00 52 1012.2
20260503011122 76 259 0.0 2.0 0.00 0.00 0.00 52 1012.2
20260503010122 76 314 0.0 4.0 0.00 0.00 0.00 52 1012.4
20260503005123 75 270 0.0 0.0 0.00 0.00 0.00 55 1012.4
20260503004122 74 323 0.0 7.0 0.00 0.00 0.00 55 1012.5
20260503003122 77 293 0.0 0.0 0.00 0.00 0.00 51 1012.6
20260503002122 76 289 1.0 10.0 0.00 0.00 0.00 51 1012.8
20260503001122 77 225 1.0 14.0 0.00 0.00 0.00 50 1013.0
20260503000122 77 243 1.0 11.0 0.00 0.00 0.00 50 1013.1
20260502235122 78 209 0.0 15.0 0.00 0.00 0.00 50 1013.1
20260502234122 78 294 1.0 10.0 0.00 0.00 0.00 50 1013.1
20260502233123 77 270 0.0 5.0 0.00 0.00 0.00 51 1013.2
20260502232122 78 270 0.0 4.0 0.00 0.00 0.00 51 1013.5
20260502231122 76 272 1.0 18.0 0.00 0.00 0.00 53 1013.5
20260502230123 74 252 1.0 9.0 0.00 0.00 0.00 54 1013.7
20260502225122 75 249 2.0 19.0 0.00 0.00 0.00 54 1013.7
20260502224122 77 266 2.0 10.0 0.00 0.00 0.00 53 1014.0
20260502223122 75 244 0.0 4.0 0.00 0.00 0.00 54 1014.2
20260502222122 75 203 0.0 0.0 0.00 0.00 0.00 55 1014.2
20260502221122 75 252 1.0 10.0 0.00 0.00 0.00 56 1014.5
20260502220122 76 293 0.0 0.0 0.00 0.00 0.00 56 1014.6
20260502215122 74 293 0.0 0.0 0.00 0.00 0.00 58 1014.6
20260502214122 73 202 3.0 15.0 0.00 0.00 0.00 58 1014.7
20260502213122 72 212 3.0 17.0 0.00 0.00 0.00 61 1014.9
20260502212123 71 224 0.0 3.0 0.00 0.00 0.00 61 1015.2
20260502211124 72 235 1.0 13.0 0.00 0.00 0.00 60 1015.2
20260502210122 71 223 0.0 3.0 0.00 0.00 0.00 61 1015.4
20260502205122 71 266 1.0 17.0 0.00 0.00 0.00 61 1015.4
20260502204122 73 232 2.0 15.0 0.00 0.00 0.00 60 1015.5
20260502203122 72 231 1.0 10.0 0.00 0.00 0.00 61 1015.5
20260502202122 70 270 0.0 17.0 0.00 0.00 0.00 64 1015.8
20260502201143 70 235 1.0 18.0 0.00 0.00 0.00 61 1015.8
20260502200122 70 219 1.0 15.0 0.00 0.00 0.00 62 1016.0
20260502195122 71 238 0.0 3.0 0.00 0.00 0.00 61 1016.0
20260502194122 72 247 0.0 3.0 0.00 0.00 0.00 64 1016.0
20260502193122 69 297 0.0 5.0 0.00 0.00 0.00 67 1016.1
20260502192122 70 331 1.0 12.0 0.00 0.00 0.00 65 1016.0
20260502191122 74 270 0.0 3.0 0.00 0.00 0.00 60 1016.2
20260502190143 74 217 0.0 3.0 0.00 0.00 0.00 59 1016.0
20260502185122 74 197 0.0 4.0 0.00 0.00 0.00 60 1016.0
20260502184123 72 202 0.0 6.0 0.00 0.00 0.00 62 1016.2
20260502183122 73 201 0.0 10.0 0.00 0.00 0.00 61 1016.2
20260502182122 73 270 0.0 6.0 0.00 0.00 0.00 61 1016.2
20260502181122 69 265 1.0 11.0 0.00 0.00 0.00 65 1016.4
20260502180144 72 225 0.0 3.0 0.00 0.00 0.00 62 1016.4